Location: Bishop�s Knoyle
(51.0728°N, 2.1714°W)
Time: 02:26:08
(UTC+00:00)

ATLAS CENTAUR R/B - Pass Details

Date: 18 January 2021
Orbit: 475 x 670 km, 64.7° (Epoch: 06 March)

Event Time Altitude Azimuth Distance (km) Brightness Sun altitude
Rises 07:20:22 0° 196° (SSW) 2,543 4.8 -6.7°
Reaches altitude 10° 07:22:39 10° 187° (S) 1,653 4.0 -6.4°
Maximum altitude 07:25:58 33° 122° (ESE) 822 3.2 -5.9°
Drops below altitude 10° 07:29:16 10° 57° (ENE) 1,653 4.2 -5.4°
Sets 07:31:32 0° 48° (NE) 2,543 5.0 -5.1°
